timestamp,wind_dir_avg,wind_spd_max_dir,wind_spd_avg,wind_spd_gust,battery_voltage,lat,long
2019-11-10 00:04:01+00:00,297.0,293.0,8.94,10.15,12.65,47.59359,-54.27349
2019-11-10 00:14:01+00:00,308.0,306.0,8.93,10.6,12.57,47.59359,-54.27349
2019-11-10 00:24:01+00:00,289.0,286.0,8.17,10.07,12.57,47.59359,-54.27349
2019-11-10 00:34:01+00:00,299.0,298.0,8.02,9.96,12.57,47.59359,-54.27349
2019-11-10 00:44:01+00:00,285.0,287.0,6.6,8.16,12.57,47.59359,-54.27349
2019-11-10 00:54:01+00:00,295.0,299.0,9.44,11.43,12.57,47.59359,-54.27349
2019-11-10 01:04:01+00:00,289.0,282.0,8.53,10.83,12.57,47.59359,-54.27349
2019-11-10 01:14:01+00:00,288.0,287.0,6.96,8.54,12.57,47.59359,-54.27349
2019-11-10 01:24:01+00:00,296.0,292.0,7.59,8.86,12.57,47.59359,-54.27349
2019-11-10 01:34:01+00:00,302.0,304.0,8.5,10.44,12.57,47.59359,-54.27349
2019-11-10 01:44:01+00:00,303.0,304.0,7.31,8.52,12.57,47.59359,-54.27349
2019-11-10 01:54:01+00:00,296.0,290.0,6.26,7.16,12.57,47.59359,-54.27349
2019-11-10 02:04:01+00:00,287.0,280.0,5.16,7.44,12.57,47.59359,-54.27349
2019-11-10 02:14:01+00:00,293.0,296.0,5.39,6.38,12.57,47.59359,-54.27349
2019-11-10 02:24:01+00:00,290.0,292.0,4.05,4.52,12.57,47.59359,-54.27349
2019-11-10 02:34:01+00:00,260.0,262.0,4.22,5.09,12.57,47.59359,-54.27349
2019-11-10 02:44:01+00:00,282.0,271.0,3.95,4.6,12.57,47.59359,-54.27349
2019-11-10 02:54:01+00:00,267.0,263.0,4.93,5.81,12.57,47.59359,-54.27349
2019-11-10 03:04:01+00:00,291.0,288.0,4.15,4.89,12.57,47.59359,-54.27349
2019-11-10 03:14:01+00:00,283.0,283.0,6.55,8.64,12.57,47.59359,-54.27349
2019-11-10 03:24:01+00:00,287.0,283.0,6.46,7.39,12.57,47.59359,-54.27349
2019-11-10 03:34:01+00:00,286.0,290.0,5.73,6.67,12.57,47.59359,-54.27349
2019-11-10 03:44:01+00:00,278.0,282.0,4.5,5.75,12.57,47.59359,-54.27349
2019-11-10 03:54:01+00:00,305.0,306.0,4.6,5.48,12.57,47.59359,-54.27349
2019-11-10 04:04:01+00:00,288.0,299.0,3.98,4.52,12.57,47.59359,-54.27349
2019-11-10 04:14:01+00:00,276.0,273.0,3.34,4.56,12.49,47.59359,-54.27349
2019-11-10 04:24:01+00:00,275.0,285.0,3.45,4.03,12.49,47.59359,-54.27349
2019-11-10 04:34:01+00:00,270.0,271.0,6.22,6.83,12.49,47.59359,-54.27349
2019-11-10 04:44:01+00:00,270.0,271.0,4.53,5.12,12.49,47.59359,-54.27349
2019-11-10 04:54:01+00:00,245.0,245.0,4.7,5.26,12.49,47.59359,-54.27349
2019-11-10 05:04:01+00:00,266.0,274.0,4.02,5.05,12.49,47.59359,-54.27349
2019-11-10 05:14:01+00:00,261.0,253.0,4.66,5.17,12.49,47.59359,-54.27349
2019-11-10 05:24:01+00:00,264.0,263.0,4.78,6.22,12.49,47.59359,-54.27349
2019-11-10 05:34:01+00:00,254.0,251.0,4.68,5.84,12.49,47.59359,-54.27349
2019-11-10 05:44:01+00:00,260.0,260.0,4.89,6.11,12.49,47.59359,-54.27349
2019-11-10 05:54:01+00:00,274.0,278.0,5.36,6.26,12.49,47.59359,-54.27349
2019-11-10 06:04:01+00:00,265.0,266.0,5.48,6.68,12.49,47.59359,-54.27349
2019-11-10 06:14:01+00:00,265.0,261.0,5.5,6.22,12.49,47.59359,-54.27349
2019-11-10 06:24:01+00:00,266.0,262.0,5.22,6.16,12.49,47.59359,-54.27349
2019-11-10 06:34:01+00:00,266.0,264.0,6.21,6.88,12.49,47.59359,-54.27349
2019-11-10 06:44:01+00:00,258.0,265.0,4.76,5.28,12.49,47.59359,-54.27349
2019-11-10 06:54:01+00:00,289.0,292.0,4.98,5.59,12.49,47.59359,-54.27349
2019-11-10 07:04:01+00:00,289.0,287.0,3.48,4.46,12.49,47.59359,-54.27349
2019-11-10 07:14:01+00:00,318.0,319.0,4.48,5.18,12.49,47.59359,-54.27349
2019-11-10 07:24:01+00:00,320.0,318.0,5.44,6.59,12.49,47.59359,-54.27349
2019-11-10 07:34:01+00:00,326.0,325.0,4.32,6.66,12.49,47.59359,-54.27349
2019-11-10 07:44:01+00:00,335.0,335.0,5.07,5.75,12.49,47.59359,-54.27349
2019-11-10 07:54:01+00:00,336.0,327.0,2.66,3.16,12.49,47.59359,-54.27349
2019-11-10 08:04:01+00:00,336.0,336.0,2.09,2.55,12.49,47.59359,-54.27349
2019-11-10 08:14:01+00:00,333.0,336.0,2.87,3.27,12.49,47.59359,-54.27349
2019-11-10 08:24:01+00:00,333.0,330.0,2.44,2.94,12.49,47.59359,-54.27349
2019-11-10 08:34:01+00:00,328.0,336.0,2.0,2.49,12.49,47.59359,-54.27349
2019-11-10 08:44:01+00:00,330.0,336.0,1.67,1.94,12.49,47.59359,-54.27349
2019-11-10 08:54:01+00:00,267.0,258.0,2.27,2.71,12.49,47.59359,-54.27349
2019-11-10 09:04:01+00:00,249.0,252.0,1.82,2.43,12.49,47.59359,-54.27349
2019-11-10 09:14:01+00:00,234.0,233.0,2.19,2.78,12.49,47.59359,-54.27349
2019-11-10 09:24:01+00:00,250.0,251.0,3.39,3.93,12.49,47.59359,-54.27349
2019-11-10 09:34:01+00:00,256.0,262.0,3.63,4.72,12.49,47.59359,-54.27349
2019-11-10 09:44:01+00:00,266.0,258.0,4.01,4.85,12.49,47.59359,-54.27349
2019-11-10 09:54:01+00:00,267.0,260.0,5.23,6.49,12.49,47.59359,-54.27349
2019-11-10 10:04:01+00:00,261.0,254.0,5.87,6.75,12.49,47.59359,-54.27349
2019-11-10 10:14:01+00:00,259.0,254.0,4.42,6.22,12.41,47.59359,-54.27349
2019-11-10 10:24:01+00:00,258.0,258.0,5.7,6.75,12.41,47.59359,-54.27349
2019-11-10 10:34:01+00:00,255.0,254.0,6.83,8.08,12.41,47.59359,-54.27349
2019-11-10 10:44:01+00:00,257.0,255.0,7.24,8.07,12.41,47.59359,-54.27349
2019-11-10 10:54:01+00:00,256.0,256.0,7.68,8.57,12.41,47.59359,-54.27349
2019-11-10 11:04:01+00:00,265.0,266.0,7.06,8.14,12.41,47.59359,-54.27349
2019-11-10 11:14:01+00:00,262.0,266.0,7.68,8.96,12.49,47.59359,-54.27349
2019-11-10 11:24:01+00:00,252.0,260.0,7.96,8.85,12.49,47.59359,-54.27349
2019-11-10 11:34:01+00:00,257.0,252.0,6.93,8.61,12.49,47.59359,-54.27349
2019-11-10 11:44:01+00:00,254.0,260.0,6.73,7.61,12.49,47.59359,-54.27349
2019-11-10 11:54:01+00:00,259.0,260.0,5.6,6.45,12.49,47.59359,-54.27349
2019-11-10 12:04:01+00:00,256.0,258.0,6.13,7.46,12.49,47.59359,-54.27349
2019-11-10 12:14:01+00:00,253.0,255.0,6.93,8.66,13.84,47.59359,-54.27349
2019-11-10 12:24:01+00:00,239.0,242.0,6.51,8.31,13.84,47.59359,-54.27349
2019-11-10 12:34:01+00:00,245.0,243.0,5.71,6.37,13.84,47.59359,-54.27349
2019-11-10 12:44:01+00:00,245.0,248.0,6.36,7.27,13.84,47.59359,-54.27349
2019-11-10 12:54:01+00:00,258.0,261.0,7.37,8.98,13.84,47.59359,-54.27349
2019-11-10 13:04:01+00:00,257.0,256.0,7.33,8.74,13.84,47.59359,-54.27349
2019-11-10 13:14:01+00:00,263.0,268.0,8.39,10.82,13.84,47.59359,-54.27349
2019-11-10 13:24:01+00:00,252.0,253.0,8.61,9.9,13.84,47.59359,-54.27349
2019-11-10 13:34:01+00:00,257.0,260.0,7.87,9.02,13.84,47.59359,-54.27349
2019-11-10 13:44:01+00:00,255.0,267.0,7.21,8.03,13.84,47.59359,-54.27349
2019-11-10 13:54:01+00:00,244.0,241.0,6.84,7.84,13.84,47.59359,-54.27349
2019-11-10 14:04:01+00:00,255.0,246.0,7.21,8.76,13.84,47.59359,-54.27349
2019-11-10 14:14:01+00:00,245.0,242.0,6.6,8.65,13.76,47.59359,-54.27349
2019-11-10 14:24:01+00:00,234.0,236.0,6.56,7.6,13.76,47.59359,-54.27349
2019-11-10 14:34:01+00:00,253.0,262.0,6.97,8.08,13.76,47.59359,-54.27349
2019-11-10 14:44:01+00:00,258.0,259.0,7.18,8.24,13.76,47.59359,-54.27349
2019-11-10 14:54:01+00:00,247.0,255.0,7.08,8.72,13.76,47.59359,-54.27349
2019-11-10 15:04:01+00:00,243.0,253.0,6.47,7.72,13.76,47.59359,-54.27349
2019-11-10 15:14:01+00:00,257.0,260.0,6.97,7.81,13.68,47.59359,-54.27349
2019-11-10 15:24:01+00:00,249.0,246.0,7.04,8.23,13.68,47.59359,-54.27349
2019-11-10 15:34:01+00:00,245.0,245.0,6.42,7.36,13.68,47.59359,-54.27349
2019-11-10 15:44:01+00:00,250.0,250.0,6.02,7.61,13.68,47.59359,-54.27349
2019-11-10 15:54:01+00:00,251.0,245.0,5.51,6.05,13.68,47.59359,-54.27349
2019-11-10 16:04:01+00:00,250.0,252.0,5.43,6.64,13.68,47.59359,-54.27349
2019-11-10 16:14:01+00:00,234.0,249.0,4.91,5.79,13.76,47.59359,-54.27349
2019-11-10 16:24:01+00:00,238.0,235.0,4.54,5.41,13.76,47.59359,-54.27349
2019-11-10 16:34:01+00:00,241.0,249.0,5.31,6.81,13.76,47.59359,-54.27349
2019-11-10 16:44:01+00:00,221.0,220.0,7.54,8.3,13.76,47.59359,-54.27349
2019-11-10 16:54:01+00:00,219.0,222.0,6.24,7.33,13.76,47.59359,-54.27349
2019-11-10 17:04:01+00:00,227.0,237.0,6.65,7.57,13.76,47.59359,-54.27349
2019-11-10 17:14:01+00:00,219.0,218.0,6.44,7.23,14.16,47.59359,-54.27349
2019-11-10 17:24:01+00:00,219.0,211.0,5.34,6.76,14.16,47.59359,-54.27349
2019-11-10 17:34:01+00:00,220.0,221.0,7.42,8.28,14.16,47.59359,-54.27349
2019-11-10 17:44:01+00:00,229.0,230.0,5.94,6.69,14.16,47.59359,-54.27349
2019-11-10 17:54:01+00:00,236.0,234.0,5.48,6.26,14.16,47.59359,-54.27349
2019-11-10 18:04:01+00:00,240.0,241.0,6.74,7.66,14.16,47.59359,-54.27349
2019-11-10 18:14:01+00:00,231.0,233.0,6.73,8.09,14.0,47.59359,-54.27349
2019-11-10 18:24:01+00:00,246.0,251.0,5.03,6.59,14.0,47.59359,-54.27349
2019-11-10 18:34:01+00:00,238.0,235.0,6.53,7.57,14.0,47.59359,-54.27349
2019-11-10 18:44:01+00:00,225.0,225.0,6.22,7.56,14.0,47.59359,-54.27349
2019-11-10 18:54:01+00:00,233.0,237.0,7.19,8.29,14.0,47.59359,-54.27349
2019-11-10 19:04:01+00:00,229.0,227.0,7.54,8.57,14.0,47.59359,-54.27349
2019-11-10 19:14:01+00:00,228.0,231.0,8.34,9.79,13.68,47.59359,-54.27349
2019-11-10 19:24:01+00:00,231.0,233.0,7.09,8.2,13.68,47.59359,-54.27349
2019-11-10 19:34:01+00:00,233.0,238.0,7.82,8.58,13.68,47.59359,-54.27349
2019-11-10 19:44:01+00:00,232.0,231.0,5.78,6.76,13.68,47.59359,-54.27349
2019-11-10 19:54:01+00:00,233.0,244.0,6.71,8.23,13.68,47.59359,-54.27349
2019-11-10 20:04:01+00:00,227.0,226.0,6.15,6.97,13.68,47.59359,-54.27349
2019-11-10 20:14:01+00:00,219.0,221.0,6.26,7.27,13.37,47.59359,-54.27349
2019-11-10 20:24:01+00:00,246.0,249.0,4.68,5.48,13.37,47.59359,-54.27349
2019-11-10 20:34:01+00:00,232.0,232.0,4.92,5.65,13.37,47.59359,-54.27349
2019-11-10 20:44:01+00:00,242.0,252.0,5.62,6.93,13.37,47.59359,-54.27349
2019-11-10 20:54:01+00:00,241.0,246.0,5.52,6.22,13.37,47.59359,-54.27349
2019-11-10 21:04:01+00:00,239.0,240.0,5.98,6.99,13.37,47.59359,-54.27349
2019-11-10 21:14:01+00:00,236.0,239.0,6.18,6.73,12.81,47.59359,-54.27349
2019-11-10 21:24:01+00:00,238.0,235.0,4.96,5.95,12.81,47.59359,-54.27349
2019-11-10 21:34:01+00:00,213.0,220.0,4.28,5.43,12.81,47.59359,-54.27349
2019-11-10 21:44:01+00:00,194.0,192.0,4.41,4.85,12.81,47.59359,-54.27349
2019-11-10 21:54:01+00:00,195.0,205.0,4.35,5.24,12.81,47.59359,-54.27349
2019-11-10 22:04:01+00:00,191.0,191.0,4.62,5.28,12.81,47.59359,-54.27349
2019-11-10 22:14:01+00:00,207.0,215.0,6.36,7.73,12.65,47.59359,-54.27349
2019-11-10 22:24:01+00:00,219.0,222.0,7.3,8.27,12.65,47.59359,-54.27349
2019-11-10 22:34:01+00:00,216.0,217.0,7.72,8.49,12.65,47.59359,-54.27349
2019-11-10 22:44:01+00:00,213.0,211.0,7.45,8.18,12.65,47.59359,-54.27349
2019-11-10 22:54:01+00:00,210.0,213.0,7.29,8.07,12.65,47.59359,-54.27349
2019-11-10 23:04:01+00:00,214.0,205.0,7.21,8.74,12.65,47.59359,-54.27349
2019-11-10 23:14:01+00:00,215.0,211.0,7.02,7.88,12.65,47.59359,-54.27349
2019-11-10 23:24:01+00:00,217.0,217.0,7.35,9.0,12.65,47.59359,-54.27349
2019-11-10 23:34:01+00:00,217.0,219.0,7.1,7.84,12.65,47.59359,-54.27349
2019-11-10 23:44:01+00:00,209.0,216.0,6.72,7.82,12.65,47.59359,-54.27349
2019-11-10 23:54:01+00:00,215.0,218.0,6.51,7.18,12.65,47.59359,-54.27349
